[sarex] 2 Line ISS Keps 9-26

Dave Larsen PhD doc at volcano.net
Wed Sep 26 04:04:08 PDT 2007


ISS
1 25544U 98067A   07269.37582516  .00007575  00000-0  53517-4 0   508
2 25544 051.6342 301.8027 0002511 042.1742 035.8614 15.75217004506744


More information about the SAREX mailing list